Regional Weather Roundup
Issued by NWS Goodland, KS

Home | Current Version | Previous Version | Text Only | Print | Product List | Glossary On
Versions: 1 2 3 4 5 6 7 8 9 10 11 12 13 14 15 16 17 18 19 20 21 22 23 24 25 26 27 28 29 30 31 32 33 34 35 36 37 38 39 40 41 42 43 44 45 46 47 48 49 50
000
ASUS43 KGLD 240159
RWRGLD

GOODLAND FORECAST AREA HOURLY WEATHER ROUNDUP
NATIONAL WEATHER SERVICE GOODLAND KS
800 PM MDT TUE AUG 23 2016

...OFFICIAL OBSERVATIONS...

CITY           SKY/WX    TMP DP  RH WIND       PRES   REMARKS
GOODLAND KS    CLEAR     69  49  48 N8        29.96R
HILL CITY KS   CLEAR     78  62  57 N9        29.83R
IMPERIAL NEB   CLEAR     67  48  50 N7        29.97R
MCCOOK NEB     CLEAR     78  47  33 N14       29.89R
AKRON CO       PTCLDY    75  28  17 NE9       30.06R
BURLINGTON CO  CLEAR     73  27  18 N8        30.01R
LIMON CO       CLOUDY    73  30  20 W5        30.11R
$$

...UNOFFICIAL OBSERVATIONS...

CITY           SKY/WX    TMP DP  RH WIND       PRES   REMARKS
COLBY KS       CLEAR     72  55  56 NW8       29.93R
LENORA KS        N/A     85  32  15 MISG        N/A
NORTON KS      CLEAR     79  55  44 N3        29.83S
SHARON SPRINGS   N/A     76  47  35 CALM        N/A
TRENTON NEB      N/A     78  32  18 MISG        N/A
KIT CARSON CO    N/A     76  35  23 MISG        N/A
YUMA CO          N/A     74  41  30 CALM        N/A
$$



USA.gov is the U.S. government's official web portal to all federal, state and local government web resources and services.